Location: *
(40.4000°N, 15.1200°E)
Time: 21:21:59
(UTC+00:00)

SL-8 Rocket - Pass Details

Date: 09 April 2020
Orbit: 958 x 990 km, 82.9° (Epoch: 23 May)

Event Time Altitude Azimuth Distance (km) Brightness Sun altitude
Rises 19:23:47 0° 354° (N) 3,708 7.6 -20.5°
Reaches altitude 10° 19:26:19 10° 357° (N) 2,758 6.8 -20.9°
Maximum altitude 19:32:39 71° 82° (E) 1,043 3.9 -21.9°
Enters shadow 19:35:13 38° 156° (SSE) 1,474 4.5 -22.4°
